Voltar ao catálogo

STARLINK-3158

AtivoComunicaçõesVLEO
NORAD 49432·PAYLOAD·🇺🇸 United States

Lançado Nov 13, 2021 de Cape Canaveral Space Force Station

Loading…

Próximas Passagens (próximas 24 horas)

TLE

AtualizadoSource: CelesTrak SupGP

Época: Sep 14, 2026, 20:10 UTC

1 49432C 21104AA  26257.84076389 -.00006831  00000+0 -21969-3 0  2573
2 49432  53.1580  78.2055 0001344  82.7937  30.6976 15.31702108    11

Acompanhe STARLINK-3158 em tempo real com AllMySat

Download on the App Store